EW4931 Weather Reports


Display with metric or nautical units.
time (UTC)temp
F
wind
direction
speed
MPH
gust
MPH
rain 1hr
in
rain 24hr
in
rain mn
in
humidity
%
barometer
mb
20260510121724 57 193 4.0 14.0 0.00 0.00 0.00 41 1011.2
20260510121443 56 221 6.0 12.0 0.00 0.00 0.00 39 1011.3
20260510120723 58 193 5.0 10.0 0.00 0.00 0.00 39 1011.4
20260510120224 57 241 4.0 15.0 0.00 0.00 0.00 40 1011.4
20260510115723 57 220 6.0 15.0 0.00 0.00 0.00 39 1011.4
20260510115223 56 251 7.0 15.0 0.00 0.00 0.00 39 1011.5
20260510114722 57 188 7.0 14.0 0.00 0.00 0.00 40 1011.4
20260510114221 57 190 6.0 14.0 0.00 0.00 0.00 40 1011.6
20260510113722 58 171 7.0 13.0 0.00 0.00 0.00 39 1011.6
20260510113221 58 240 5.0 15.0 0.00 0.00 0.00 41 1011.7
20260510112721 58 279 6.0 15.0 0.00 0.00 0.00 41 1011.7
20260510112221 58 149 5.0 13.0 0.00 0.00 0.00 41 1011.8
20260510111722 57 240 5.0 13.0 0.00 0.00 0.00 41 1011.9
20260510111221 57 207 7.0 13.0 0.00 0.00 0.00 40 1011.9
20260510110722 57 245 7.0 13.0 0.00 0.00 0.00 40 1012.0
20260510110221 57 281 6.0 11.0 0.00 0.00 0.00 39 1012.1
20260510105721 57 235 6.0 14.0 0.00 0.00 0.00 39 1012.4
20260510105220 57 223 6.0 19.0 0.00 0.00 0.00 39 1012.5
20260510104944 57 220 10.0 19.0 0.00 0.00 0.00 39 1012.6
20260510104439 57 219 5.0 15.0 0.00 0.00 0.00 40 1012.6
20260510103945 57 176 10.0 15.0 0.00 0.00 0.00 41 1012.6
20260510103220 57 193 7.0 15.0 0.00 0.00 0.00 40 1012.7
20260510102942 57 190 6.0 13.0 0.00 0.00 0.00 40 1012.7
20260510102220 57 258 6.0 15.0 0.00 0.00 0.00 40 1012.8
20260510101938 56 244 3.0 15.0 0.00 0.00 0.00 40 1012.8
20260510101219 56 168 4.0 13.0 0.00 0.00 0.00 41 1012.9
20260510100720 55 245 4.0 14.0 0.00 0.00 0.00 40 1013.0
20260510100220 56 212 8.0 14.0 0.00 0.00 0.00 39 1013.1
20260510095721 56 206 4.0 12.0 0.00 0.00 0.00 40 1013.1
20260510095221 56 255 5.0 12.0 0.00 0.00 0.00 39 1013.2
20260510094721 56 268 5.0 11.0 0.00 0.00 0.00 39 1013.2
20260510094221 57 210 6.0 14.0 0.00 0.00 0.00 39 1013.3
20260510093720 56 258 5.0 14.0 0.00 0.00 0.00 42 1013.2
20260510093218 56 276 5.0 11.0 0.00 0.00 0.00 41 1013.3
20260510092719 57 219 4.0 10.0 0.00 0.00 0.00 40 1013.2
20260510092220 57 176 5.0 10.0 0.00 0.00 0.00 39 1013.4
20260510091720 57 252 2.0 10.0 0.00 0.00 0.00 42 1013.4
20260510091219 56 261 5.0 10.0 0.00 0.00 0.00 42 1013.5
20260510090720 56 251 7.0 11.0 0.00 0.00 0.00 40 1013.5
20260510090219 56 234 5.0 11.0 0.00 0.00 0.00 39 1013.6
20260510085720 56 255 6.0 12.0 0.00 0.00 0.00 39 1013.5
20260510085442 57 204 5.0 12.0 0.00 0.00 0.00 38 1013.7
20260510084716 56 188 2.0 11.0 0.00 0.00 0.00 38 1013.7
20260510084219 56 248 4.0 11.0 0.00 0.00 0.00 39 1013.8
20260510083719 56 192 5.0 13.0 0.00 0.00 0.00 38 1013.8
20260510083217 56 186 4.0 13.0 0.00 0.00 0.00 37 1013.9
20260510082943 56 196 6.0 10.0 0.00 0.00 0.00 36 1014.0
20260510082437 57 178 6.0 10.0 0.00 0.00 0.00 35 1014.0
20260510081719 57 221 5.0 10.0 0.00 0.00 0.00 35 1014.0
20260510081218 57 243 2.0 10.0 0.00 0.00 0.00 35 1014.1
20260510080717 57 227 4.0 6.0 0.00 0.00 0.00 39 1014.2
20260510080217 57 173 4.0 7.0 0.00 0.00 0.00 39 1014.2
20260510075717 57 220 3.0 9.0 0.00 0.00 0.00 37 1014.2
20260510075218 56 243 6.0 9.0 0.00 0.00 0.00 41 1014.4
20260510074717 56 193 3.0 9.0 0.00 0.00 0.00 43 1014.3
20260510074217 55 192 3.0 11.0 0.00 0.00 0.00 44 1014.4
20260510073716 54 155 6.0 14.0 0.00 0.00 0.00 44 1014.4
20260510073217 55 189 7.0 14.0 0.00 0.00 0.00 42 1014.5
20260510072940 55 193 4.0 10.0 0.00 0.00 0.00 42 1014.6
20260510072439 54 169 6.0 9.0 0.00 0.00 0.00 41 1014.6
20260510071719 54 192 4.0 11.0 0.00 0.00 0.00 40 1014.7
20260510071216 54 212 3.0 11.0 0.00 0.00 0.00 37 1014.7
20260510070716 54 235 6.0 11.0 0.00 0.00 0.00 40 1014.8
20260510070216 54 233 4.0 11.0 0.00 0.00 0.00 44 1014.8
20260510065716 54 175 3.0 11.0 0.00 0.00 0.00 43 1014.9
20260510065215 53 212 6.0 11.0 0.00 0.00 0.00 44 1014.9
20260510064715 53 188 6.0 11.0 0.00 0.00 0.00 42 1015.0
20260510064215 53 168 4.0 10.0 0.00 0.00 0.00 45 1015.1
20260510063716 53 164 6.0 10.0 0.00 0.00 0.00 48 1015.2
20260510063214 53 169 5.0 9.0 0.00 0.00 0.00 49 1015.1
20260510062715 53 137 5.0 9.0 0.00 0.00 0.00 49 1015.3
20260510062220 52 94 4.0 7.0 0.00 0.00 0.00 52 1015.4
20260510061719 52 154 5.0 7.0 0.00 0.00 0.00 53 1015.5
20260510061216 52 145 5.0 9.0 0.00 0.00 0.00 52 1015.5
20260510060715 52 130 4.0 9.0 0.00 0.00 0.00 53 1015.6
20260510060651 52 157 4.0 6.0 0.00 0.00 0.00 54 1015.7
20260510055714 52 250 3.0 5.0 0.00 0.00 0.00 54 1015.6
20260510055215 51 238 3.0 5.0 0.00 0.00 0.00 58 1015.7
20260510054713 51 237 2.0 6.0 0.00 0.00 0.00 59 1015.7
20260510054438 51 179 3.0 6.0 0.00 0.00 0.00 62 1015.7
20260510053714 50 166 3.0 6.0 0.00 0.00 0.00 63 1015.6
20260510053214 50 204 4.0 6.0 0.00 0.00 0.00 65 1015.8
20260510052937 49 140 2.0 4.0 0.00 0.00 0.00 69 1015.7
20260510052439 48 172 2.0 4.0 0.00 0.00 0.00 71 1015.9
20260510051720 48 183 3.0 4.0 0.00 0.00 0.00 71 1015.9
20260510051214 47 176 3.0 4.0 0.00 0.00 0.00 72 1016.0
20260510050936 47 180 2.0 4.0 0.00 0.00 0.00 74 1016.0
20260510050213 47 138 3.0 4.0 0.00 0.00 0.00 75 1016.0
20260510045713 46 185 2.0 4.0 0.00 0.00 0.00 75 1016.1
20260510045214 45 155 3.0 4.0 0.00 0.00 0.00 76 1016.2
20260510044712 45 171 1.0 4.0 0.00 0.00 0.00 77 1016.2
20260510044656 44 162 2.0 4.0 0.00 0.00 0.00 77 1016.2
20260510043713 44 148 2.0 4.0 0.00 0.00 0.00 77 1016.3
20260510043212 43 151 2.0 4.0 0.00 0.00 0.00 78 1016.3
20260510042712 43 154 1.0 4.0 0.00 0.00 0.00 79 1016.4
20260510042213 43 142 4.0 4.0 0.00 0.00 0.00 81 1016.4
20260510041712 43 161 3.0 4.0 0.00 0.00 0.00 81 1016.5
20260510041219 43 169 2.0 3.0 0.00 0.00 0.00 82 1016.6
20260510040712 42 162 2.0 3.0 0.00 0.00 0.00 84 1016.7
20260510040212 42 161 2.0 3.0 0.00 0.00 0.00 85 1016.9
20260510035939 41 154 1.0 2.0 0.00 0.00 0.00 87 1016.9
20260510035211 41 152 2.0 2.0 0.00 0.00 0.00 89 1017.0
20260510034710 40 152 0.0 2.0 0.00 0.00 0.00 89 1017.1
20260510034211 39 152 1.0 2.0 0.00 0.00 0.00 89 1017.1
20260510033711 39 152 1.0 1.0 0.00 0.00 0.00 90 1017.1
20260510033218 39 152 0.0 1.0 0.00 0.00 0.00 92 1017.2
20260510032710 39 152 0.0 0.0 0.00 0.00 0.00 92 1017.4
20260510032210 38 152 0.0 0.0 0.00 0.00 0.00 92 1017.4
20260510031710 38 152 0.0 0.0 0.00 0.00 0.00 93 1017.4
20260510031210 37 152 0.0 0.0 0.00 0.00 0.00 92 1017.5
20260510030710 37 152 0.0 0.0 0.00 0.00 0.00 93 1017.6
20260510030209 36 152 0.0 0.0 0.00 0.00 0.00 91 1017.6
20260510025710 35 152 0.0 0.0 0.00 0.00 0.00 91 1017.6
20260510025436 35 152 0.0 0.0 0.00 0.00 0.00 91 1017.6
20260510024710 36 152 0.0 1.0 0.00 0.00 0.00 91 1017.6
20260510024210 35 152 0.0 2.0 0.00 0.00 0.00 91 1017.6
20260510023710 35 152 0.0 2.0 0.00 0.00 0.00 90 1017.7
20260510023210 35 152 1.0 2.0 0.00 0.00 0.00 90 1017.8
20260510022936 35 152 0.0 2.0 0.00 0.00 0.00 90 1017.9
20260510022211 35 152 1.0 2.0 0.00 0.00 0.00 90 1017.9
20260510021710 35 152 0.0 0.0 0.00 0.00 0.00 89 1018.0
20260510021210 35 152 0.0 0.0 0.00 0.00 0.00 89 1018.1
20260510020709 36 152 0.0 0.0 0.00 0.00 0.00 89 1018.1
20260510020210 36 152 0.0 0.0 0.00 0.00 0.00 89 1018.2
20260510015710 36 152 0.0 0.0 0.00 0.00 0.00 89 1018.3
20260510015211 36 152 0.0 0.0 0.00 0.00 0.00 88 1018.4
20260510014710 36 152 0.0 0.0 0.00 0.00 0.00 88 1018.4
20260510014432 36 152 0.0 0.0 0.00 0.00 0.00 88 1018.5
20260510013710 36 152 0.0 0.0 0.00 0.00 0.00 87 1018.5
20260510013211 36 152 0.0 0.0 0.00 0.00 0.00 87 1018.6
20260510012711 36 152 0.0 0.0 0.00 0.00 0.00 86 1018.6
20260510012210 37 152 0.0 0.0 0.00 0.00 0.00 86 1018.7
20260510011710 37 152 0.0 0.0 0.00 0.00 0.00 86 1018.7
20260510011655 37 152 0.0 0.0 0.00 0.00 0.00 85 1018.8
20260510010930 37 152 0.0 0.0 0.00 0.00 0.00 85 1018.8
20260510010209 38 152 0.0 0.0 0.00 0.00 0.00 84 1018.9
20260510005709 38 152 0.0 0.0 0.00 0.00 0.00 84 1018.8
20260510005208 38 152 0.0 0.0 0.00 0.00 0.00 84 1018.8
20260510004708 38 152 0.0 0.0 0.00 0.00 0.00 83 1018.9
20260510004209 39 152 0.0 1.0 0.00 0.00 0.00 83 1018.9
20260510003709 39 152 0.0 1.0 0.00 0.00 0.00 84 1019.0
20260510003210 39 152 0.0 1.0 0.00 0.00 0.00 84 1019.0
20260510002709 39 152 0.0 2.0 0.00 0.00 0.00 84 1019.1
20260510002436 40 152 0.0 2.0 0.00 0.00 0.00 85 1019.1
20260510001708 39 152 1.0 2.0 0.00 0.00 0.00 85 1019.1
20260510001208 39 152 1.0 3.0 0.00 0.00 0.00 86 1019.2
20260510000936 39 152 1.0 3.0 0.00 0.00 0.00 87 1019.2
20260510000219 39 148 2.0 3.0 0.00 0.00 0.00 88 1019.3
20260509235708 39 145 2.0 3.0 0.00 0.00 0.00 90 1019.4
20260509235209 38 141 2.0 3.0 0.00 0.00 0.00 90 1019.4
20260509234708 38 140 2.0 3.0 0.00 0.00 0.00 90 1019.5
20260509234208 37 140 1.0 2.0 0.00 0.00 0.00 90 1019.5
20260509233708 37 140 1.0 2.0 0.00 0.00 0.00 89 1019.6
20260509233208 37 140 0.0 1.0 0.00 0.00 0.00 89 1019.6
20260509232708 37 140 0.0 1.0 0.00 0.00 0.00 88 1019.8
20260509232207 37 140 0.0 0.0 0.00 0.00 0.00 87 1019.9
20260509231924 38 140 0.0 0.0 0.00 0.00 0.00 87 1020.0
20260509231204 38 140 0.0 0.0 0.00 0.00 0.00 87 1020.1
20260509230705 38 140 0.0 0.0 0.00 0.00 0.00 86 1020.2
20260509230206 38 140 0.0 0.0 0.00 0.00 0.00 86 1020.2
20260509225707 39 140 0.0 0.0 0.00 0.00 0.00 86 1020.2
20260509225432 39 140 0.0 0.0 0.00 0.00 0.00 86 1020.4
20260509224707 40 140 0.0 0.0 0.00 0.00 0.00 86 1020.4
20260509224206 40 140 0.0 1.0 0.00 0.00 0.00 86 1020.4
20260509223708 40 140 0.0 2.0 0.00 0.00 0.00 86 1020.4
20260509223207 40 140 1.0 2.0 0.00 0.00 0.00 86 1020.4
20260509222707 40 140 1.0 2.0 0.00 0.00 0.00 85 1020.4
20260509222205 41 140 0.0 2.0 0.00 0.00 0.00 85 1020.5
20260509221705 41 140 1.0 2.0 0.00 0.00 0.00 85 1020.6
20260509221205 41 140 1.0 2.0 0.00 0.00 0.00 85 1020.6
20260509220705 42 140 2.0 3.0 0.00 0.00 0.00 85 1020.6
20260509220204 42 140 2.0 3.0 0.00 0.00 0.00 85 1020.7
20260509215927 42 140 2.0 3.0 0.00 0.00 0.00 84 1020.8
20260509215426 42 140 2.0 3.0 0.00 0.00 0.00 84 1020.8
20260509215153 42 140 1.0 4.0 0.00 0.00 0.00 84 1020.8
20260509214206 42 140 2.0 4.0 0.00 0.00 0.00 84 1020.8
20260509213705 42 140 2.0 3.0 0.00 0.00 0.00 84 1020.8
20260509213205 42 140 2.0 3.0 0.00 0.00 0.00 83 1021.0
20260509212705 42 140 2.0 3.0 0.00 0.00 0.00 84 1021.0
20260509212206 42 140 2.0 3.0 0.00 0.00 0.00 83 1020.9
20260509211702 42 140 3.0 3.0 0.00 0.00 0.00 83 1021.0
20260509211202 42 140 2.0 3.0 0.00 0.00 0.00 83 1021.1
20260509210702 42 140 2.0 3.0 0.00 0.00 0.00 83 1021.1
20260509210205 42 140 2.0 3.0 0.00 0.00 0.00 83 1021.2
20260509205929 42 140 1.0 3.0 0.00 0.00 0.00 83 1021.2
20260509205204 42 140 2.0 3.0 0.00 0.00 0.00 82 1021.3
20260509205149 43 140 2.0 3.0 0.00 0.00 0.00 81 1021.3
20260509204205 43 140 2.0 3.0 0.00 0.00 0.00 81 1021.4
20260509203705 43 140 1.0 3.0 0.00 0.00 0.00 80 1021.4
20260509203653 42 140 2.0 3.0 0.00 0.00 0.00 80 1021.4
20260509202701 42 140 2.0 3.0 0.00 0.00 0.00 79 1021.5
20260509202203 43 140 2.0 2.0 0.00 0.00 0.00 79 1021.5
20260509201703 43 140 1.0 3.0 0.00 0.00 0.00 79 1021.5
20260509201202 43 141 2.0 3.0 0.00 0.00 0.00 79 1021.6
20260509200702 42 141 2.0 3.0 0.00 0.00 0.00 78 1021.6
20260509200202 43 176 2.0 2.0 0.00 0.00 0.00 78 1021.6
20260509195701 43 176 1.0 2.0 0.00 0.00 0.00 78 1021.6
20260509195201 43 176 1.0 2.0 0.00 0.00 0.00 77 1021.7
20260509194700 43 176 1.0 2.0 0.00 0.00 0.00 76 1021.8
20260509194423 43 176 1.0 3.0 0.00 0.00 0.00 75 1021.8
20260509193700 43 176 1.0 3.0 0.00 0.00 0.00 75 1021.8
20260509193200 43 176 2.0 2.0 0.00 0.00 0.00 74 1021.8
20260509192700 43 176 1.0 2.0 0.00 0.00 0.00 73 1021.9
20260509192200 44 176 1.0 2.0 0.00 0.00 0.00 73 1021.9
20260509191700 44 176 1.0 2.0 0.00 0.00 0.00 72 1021.9
20260509191200 44 176 2.0 2.0 0.00 0.00 0.00 72 1021.9
20260509190700 44 176 2.0 2.0 0.00 0.00 0.00 71 1021.9
20260509190159 45 176 1.0 2.0 0.00 0.00 0.00 71 1021.9
20260509185701 45 176 2.0 2.0 0.00 0.00 0.00 70 1022.1
20260509185201 45 176 1.0 2.0 0.00 0.00 0.00 69 1022.1
20260509184919 45 176 1.0 2.0 0.00 0.00 0.00 69 1022.1
20260509184201 46 176 1.0 2.0 0.00 0.00 0.00 68 1022.2
20260509183700 46 176 1.0 1.0 0.00 0.00 0.00 67 1022.2
20260509183200 47 176 1.0 2.0 0.00 0.00 0.00 66 1022.2
20260509182701 47 176 1.0 2.0 0.00 0.00 0.00 65 1022.3
20260509182200 47 176 1.0 4.0 0.00 0.00 0.00 65 1022.3
20260509181916 47 176 1.0 5.0 0.00 0.00 0.00 65 1022.3
20260509181200 47 176 2.0 5.0 0.00 0.00 0.00 64 1022.3
20260509180700 48 169 2.0 5.0 0.00 0.00 0.00 64 1022.2
20260509180159 48 159 2.0 5.0 0.00 0.00 0.00 63 1022.3
20260509175700 48 157 4.0 7.0 0.00 0.00 0.00 62 1022.3
20260509175417 48 137 4.0 7.0 0.00 0.00 0.00 61 1022.3
20260509174659 48 171 4.0 6.0 0.00 0.00 0.00 60 1022.3
20260509174419 49 197 4.0 6.0 0.00 0.00 0.00 59 1022.3
20260509173659 49 166 2.0 6.0 0.00 0.00 0.00 59 1022.3
20260509173200 49 155 4.0 9.0 0.00 0.00 0.00 58 1022.2
20260509172918 49 183 4.0 9.0 0.00 0.00 0.00 61 1022.3
20260509172159 49 99 4.0 9.0 0.00 0.00 0.00 62 1022.3
20260509172141 50 113 6.0 9.0 0.00 0.00 0.00 60 1022.3
20260509171158 50 155 5.0 7.0 0.00 0.00 0.00 58 1022.3
20260509170659 50 141 4.0 9.0 0.00 0.00 0.00 57 1022.4
20260509170158 50 189 4.0 11.0 0.00 0.00 0.00 53 1022.5
20260509165658 50 138 8.0 11.0 0.00 0.00 0.00 53 1022.4
20260509165158 51 202 6.0 9.0 0.00 0.00 0.00 52 1022.5
20260509164921 51 180 2.0 10.0 0.00 0.00 0.00 53 1022.6
20260509164158 51 123 6.0 10.0 0.00 0.00 0.00 56 1022.6
20260509163658 51 155 5.0 11.0 0.00 0.00 0.00 56 1022.6
20260509163158 51 109 8.0 12.0 0.00 0.00 0.00 56 1022.6
20260509162658 51 100 7.0 12.0 0.00 0.00 0.00 56 1022.7
20260509162158 51 131 8.0 12.0 0.00 0.00 0.00 53 1022.7
20260509161657 51 97 6.0 11.0 0.00 0.00 0.00 53 1022.8
20260509161157 51 178 6.0 11.0 0.00 0.00 0.00 53 1022.8
20260509160658 52 120 5.0 10.0 0.00 0.00 0.00 52 1022.8
20260509160157 52 151 4.0 11.0 0.00 0.00 0.00 52 1023.0
20260509155657 52 100 6.0 11.0 0.00 0.00 0.00 51 1022.9
20260509155414 52 155 5.0 12.0 0.00 0.00 0.00 53 1023.0
20260509154657 51 106 4.0 12.0 0.00 0.00 0.00 53 1023.0
20260509154158 52 128 9.0 12.0 0.00 0.00 0.00 51 1023.1
20260509153917 51 152 8.0 12.0 0.00 0.00 0.00 53 1023.1
20260509153157 52 131 5.0 11.0 0.00 0.00 0.00 53 1023.2
20260509152656 51 110 6.0 11.0 0.00 0.00 0.00 51 1023.2
20260509152156 52 100 6.0 11.0 0.00 0.00 0.00 50 1023.1
20260509151657 52 135 8.0 12.0 0.00 0.00 0.00 51 1023.1
20260509151156 52 120 8.0 14.0 0.00 0.00 0.00 52 1023.3
20260509150656 52 133 7.0 14.0 0.00 0.00 0.00 50 1023.3
20260509150156 53 107 7.0 10.0 0.00 0.00 0.00 51 1023.4
20260509145656 52 114 6.0 14.0 0.00 0.00 0.00 52 1023.3
20260509145426 52 69 9.0 14.0 0.00 0.00 0.00 52 1023.4
20260509144657 53 147 7.0 13.0 0.00 0.00 0.00 52 1023.5
20260509144417 53 152 7.0 14.0 0.00 0.00 0.00 50 1023.5
20260509143922 53 127 9.0 14.0 0.00 0.00 0.00 50 1023.6
20260509143155 53 104 8.0 12.0 0.00 0.00 0.00 50 1023.6
20260509142655 53 138 6.0 14.0 0.00 0.00 0.00 50 1023.7
20260509142156 53 133 10.0 14.0 0.00 0.00 0.00 50 1023.7
20260509141655 53 127 8.0 13.0 0.00 0.00 0.00 49 1023.7
20260509141154 53 90 9.0 13.0 0.00 0.00 0.00 48 1023.8
20260509140655 53 134 9.0 13.0 0.00 0.00 0.00 48 1023.8
20260509140413 53 120 10.0 13.0 0.00 0.00 0.00 48 1023.9
20260509135654 53 182 6.0 15.0 0.00 0.00 0.00 49 1023.9
20260509135414 53 168 8.0 15.0 0.00 0.00 0.00 49 1024.0
20260509134917 54 131 10.0 14.0 0.00 0.00 0.00 46 1024.0
20260509134416 54 151 6.0 13.0 0.00 0.00 0.00 47 1024.0
20260509133654 54 120 7.0 17.0 0.00 0.00 0.00 47 1024.1
20260509133154 55 110 13.0 17.0 0.00 0.00 0.00 45 1024.2
20260509132654 55 124 6.0 15.0 0.00 0.00 0.00 45 1024.2
20260509132154 54 66 7.0 16.0 0.00 0.00 0.00 43 1024.2
20260509131654 55 100 10.0 16.0 0.00 0.00 0.00 42 1024.3
20260509131155 55 83 8.0 14.0 0.00 0.00 0.00 44 1024.3
20260509130654 55 199 5.0 14.0 0.00 0.00 0.00 43 1024.4
20260509130153 55 149 9.0 15.0 0.00 0.00 0.00 43 1024.5
20260509125653 55 111 7.0 15.0 0.00 0.00 0.00 43 1024.5
20260509125420 56 93 6.0 12.0 0.00 0.00 0.00 42 1024.5
20260509124919 56 75 6.0 13.0 0.00 0.00 0.00 43 1024.5
20260509124153 55 149 7.0 14.0 0.00 0.00 0.00 43 1024.5
20260509123911 56 117 10.0 14.0 0.00 0.00 0.00 41 1024.6
20260509123153 56 82 5.0 13.0 0.00 0.00 0.00 43 1024.7
20260509122653 56 144 8.0 14.0 0.00 0.00 0.00 44 1024.6
20260509122152 56 117 8.0 14.0 0.00 0.00 0.00 44 1024.7